Regional Weather Roundup
Issued by NWS

Home | Current Version | Previous Version | Text Only | Print | Product List | Glossary Off
Versions: 1 2 3 4 5 6 7 8 9 10 11 12 13 14 15 16 17 18 19 20 21 22 23 24 25 26 27 28 29 30 31 32 33 34 35 36 37 38 39 40 41 42 43 44 45 46 47 48 49 50

000
ASUS43 KFSD 150702
RWRSD

WEATHER ROUNDUP FOR SOUTH DAKOTA
NATIONAL WEATHER SERVICE SIOUX FALLS SD
100 AM CST FRI DEC 15 2017

NOTE: "FAIR" INDICATES FEW OR NO CLOUDS BELOW 12,000 FEET WITH NO
SIGNIFICANT WEATHER AND/OR OBSTRUCTIONS TO VISIBILITY.


SDZ001>005-009-010-012>017-150800-
NORTHWEST AND NORTH CENTRAL SOUTH DAKOTA

CITY           SKY/WX    TMP DP  RH WIND       PRES   REMARKS
BUFFALO          N/A     24  19  81 W9        29.92F WCI  14
FAITH            N/A     25  21  85 W12       30.00F WCI  14
MOBRIDGE       CLOUDY    32  24  72 W12       29.97F WCI  23
$$

SDZ012>016-024>037-041>051-057-063-072>074-150800-
SOUTHWEST AND SOUTH CENTRAL SOUTH DAKOTA

CITY           SKY/WX    TMP DP  RH WIND       PRES   REMARKS
RAPID CTY ARPT CLOUDY    14   9  80 CALM      30.04F
PIERRE         MOCLDY    32  25  75 W13       30.03F WCI  22
CUSTER         CLOUDY    22  14  71 SW3       30.00F
ELLSWORTH AFB  CLOUDY    22  13  68 W7        30.02F WCI  14
PHILIP         CLEAR     23  20  88 NW7       30.06F WCI  15
PINE RIDGE     CLOUDY    22  17  81 SW5       30.08F WCI  16
SPEARFISH      FAIR      32  16  51 W14       30.02F WCI  22
WINNER         FAIR      30  25  81 W9        30.07F WCI  22
$$

SDZ004>011-016>023-039-040-150800-
NORTHEAST SOUTH DAKOTA

CITY           SKY/WX    TMP DP  RH WIND       PRES   REMARKS
ABERDEEN       CLOUDY    33  27  78 W10       29.97F WCI  25
WATERTOWN      CLOUDY    28  26  92 W12       29.94F WCI  18
BROOKINGS      FLURRIES  28  25  88 W14       29.98F WCI  17
SISSETON         N/A     33  28  81 NW13      29.93F WCI  24
$$

SDZ017-020-022-023-036>040-048>070-150800-
SOUTHEAST SOUTH DAKOTA

CITY           SKY/WX    TMP DP  RH WIND       PRES   REMARKS
SIOUX FALLS    CLOUDY    29  26  89 SW9       30.02F WCI  20
HURON          CLOUDY    34  26  72 W14       30.01F WCI  25
CHAMBERLAIN    CLOUDY    33  32  95 W8        30.05F WCI  26
MITCHELL       CLOUDY    34  26  72 W14       30.05F WCI  25
YANKTON        CLOUDY    31  26  82 SW12      30.07F WCI  22
$$

ABBREVIATIONS USED IN REMARKS
   TC - TEMPERATURE IN CELSIUS
  WCI - WIND CHILL INDEX
   HX - HEAT INDEX
  VSB - VISIBILITY





USA.gov is the U.S. government's official web portal to all federal, state and local government web resources and services.